Weather History for Hearne, TX

Change the Weather History Date:

Saturday, March 9, 2013

  Actual Average (KCLL) Record (KCLL)
Temperature  
Mean Temperature 68 °F 60 °F  
Max Temperature 75 °F 70 °F 92 °F (1911)
Min Temperature 60 °F 50 °F 25 °F (1932)
Degree Days  
Heating Degree Days 0 7  
Month to date heating degree days 68  
Since 1 July heating degree days 1455  
Cooling Degree Days 2 1  
Month to date cooling degree days 9  
Year to date cooling degree days 37  
Growing Degree Days 18 (Base 50)    
Moisture  
Dew Point 60 °F    
Average Humidity 77    
Maximum Humidity 89    
Minimum Humidity 60    
Precipitation  
Precipitation 0.00 in 0.10 in 1.73 in (1913)
Month to date precipitation 0.91  
Year to date precipitation 7.00  
Sea Level Pressure  
Sea Level Pressure 29.86 in    
Wind  
Wind Speed 13 mph (SE)    
Max Wind Speed 24 mph    
Max Gust Speed 31 mph    
Visibility 10 miles    
Events Rain    
T = Trace of Precipitation, MM = Missing Value Source: NWS Daily Summary

Daily Weather History Graph

Daily Weather History Graph

Search for Another Location

Airport:

Trip Planner

Search our weather history database for the weather conditions in past years. The results will help you decide how hot, cold, wet, or windy it might be!

Date:

Astronomy

Mar. 09, 2013 Rise Set
Actual Time 6:43 AM CST 6:30 PM CST
Civil Twilight 6:19 AM CST 6:54 PM CST
Nautical Twilight 5:51 AM CST 7:22 PM CST
Astronomical Twilight 5:23 AM CST 7:51 PM CST
Moon 5:01 AM CST (3/9) 4:39 PM CST (3/9)
Length of Visible Light 12h 35m
Length of Day
11h 47m
Waning Crescent, 5% of the Moon is Illuminated
Mar 9
Waning Crescent
Mar 11
New
Mar 19
First Quarter
Mar 27
Full
Apr 2
Last Quarter

Hourly Weather History & Observations

Time (CST) Temp. Dew Point Humidity Pressure Visibility Wind Dir Wind Speed Gust Speed Precip Events Conditions
12:15 AM 60.3 °F 55.8 °F 85% 30.06 in 10.0 mi SE 10.4 mph - N/A   Overcast
12:35 AM 60.1 °F 55.8 °F 86% 30.05 in 10.0 mi SE 9.2 mph - N/A   Overcast
12:55 AM 60.3 °F 55.9 °F 86% 30.05 in 10.0 mi SE 11.5 mph 17.3 mph N/A   Overcast
1:15 AM 60.1 °F 56.3 °F 87% 30.03 in 10.0 mi SE 13.8 mph 19.6 mph N/A   Overcast
1:35 AM 60.3 °F 56.3 °F 87% 30.03 in 10.0 mi SE 10.4 mph 17.3 mph N/A   Overcast
1:55 AM 60.1 °F 56.3 °F 87% 30.02 in 10.0 mi SE 12.7 mph 17.3 mph N/A   Overcast
2:15 AM 60.3 °F 56.5 °F 87% 30.01 in 10.0 mi ESE 9.2 mph - N/A   Overcast
2:35 AM 60.4 °F 56.7 °F 87% 30.00 in 10.0 mi SE 9.2 mph - N/A   Overcast
2:55 AM 60.4 °F 56.7 °F 87% 29.98 in 10.0 mi SE 11.5 mph 16.1 mph N/A   Overcast
3:15 AM 60.8 °F 57.0 °F 87% 29.97 in 10.0 mi SE 10.4 mph - N/A   Overcast
3:35 AM 60.8 °F 57.2 °F 88% 29.96 in 10.0 mi ESE 10.4 mph 18.4 mph N/A   Overcast
3:55 AM 61.0 °F 57.2 °F 87% 29.96 in 10.0 mi SE 8.1 mph - N/A   Overcast
4:15 AM 60.8 °F 57.2 °F 88% 29.96 in 10.0 mi SE 8.1 mph 16.1 mph N/A   Overcast
4:35 AM 60.8 °F 57.2 °F 88% 29.95 in 10.0 mi ESE 8.1 mph - N/A   Overcast
4:55 AM 60.8 °F 57.4 °F 88% 29.94 in 10.0 mi ESE 8.1 mph - N/A   Overcast
5:15 AM 61.2 °F 57.7 °F 88% 29.94 in 10.0 mi ESE 9.2 mph - N/A   Overcast
5:35 AM 61.9 °F 58.1 °F 87% 29.94 in 10.0 mi SE 10.4 mph - N/A   Overcast
5:55 AM 62.1 °F 58.3 °F 87% 29.94 in 10.0 mi SE 10.4 mph - N/A   Overcast
6:15 AM 62.4 °F 58.5 °F 87% 29.94 in 10.0 mi ESE 11.5 mph 18.4 mph N/A   Overcast
6:35 AM 62.6 °F 58.6 °F 87% 29.94 in 10.0 mi SE 10.4 mph 18.4 mph N/A   Overcast
6:55 AM 63.0 °F 59.0 °F 87% 29.94 in 10.0 mi SE 10.4 mph - N/A   Overcast
7:15 AM 63.0 °F 59.0 °F 87% 29.94 in 10.0 mi SE 10.4 mph - N/A   Overcast
7:35 AM 63.5 °F 59.4 °F 86% 29.94 in 10.0 mi SE 12.7 mph 16.1 mph N/A   Overcast
7:55 AM 63.5 °F 59.4 °F 86% 29.94 in 10.0 mi SE 10.4 mph - N/A   Overcast
8:15 AM 63.5 °F 59.7 °F 87% 29.95 in 10.0 mi SE 9.2 mph - N/A   Overcast
8:35 AM 64.4 °F 60.1 °F 86% 29.95 in 10.0 mi SE 11.5 mph - N/A   Overcast
8:55 AM 64.8 °F 60.3 °F 85% 29.94 in 10.0 mi SE 10.4 mph 16.1 mph N/A   Overcast
9:15 AM 66.0 °F 60.8 °F 83% 29.94 in 10.0 mi SE 15.0 mph 19.6 mph N/A   Overcast
9:35 AM 67.1 °F 61.0 °F 81% 29.93 in 10.0 mi SE 17.3 mph 21.9 mph N/A   Overcast
9:55 AM 68.2 °F 61.2 °F 78% 29.93 in 10.0 mi SE 18.4 mph 25.3 mph N/A   Overcast
10:15 AM 70.0 °F 61.5 °F 74% 29.91 in 10.0 mi SE 17.3 mph 25.3 mph N/A   Overcast
10:35 AM 70.2 °F 61.0 °F 73% 29.90 in 10.0 mi SSE 17.3 mph 27.6 mph N/A   Overcast
10:55 AM 71.6 °F 60.6 °F 68% 29.90 in 10.0 mi SSE 24.2 mph 29.9 mph N/A   Overcast
11:15 AM 71.6 °F 60.8 °F 69% 29.89 in 10.0 mi SSE 21.9 mph 31.1 mph N/A   Overcast
11:35 AM 71.8 °F 61.0 °F 69% 29.89 in 10.0 mi SSE 20.7 mph 29.9 mph N/A   Overcast
11:55 AM 71.8 °F 61.0 °F 69% 29.88 in 10.0 mi SSE 19.6 mph 26.5 mph N/A   Overcast
12:15 PM 72.1 °F 61.0 °F 68% 29.87 in 10.0 mi SSE 18.4 mph 28.8 mph N/A   Overcast
12:35 PM 72.7 °F 61.0 °F 67% 29.87 in 10.0 mi SSE 16.1 mph 25.3 mph N/A   Overcast
12:55 PM 72.7 °F 60.8 °F 66% 29.85 in 10.0 mi SSE 16.1 mph 24.2 mph N/A   Overcast
1:15 PM 72.9 °F 60.8 °F 66% 29.84 in 10.0 mi SSE 12.7 mph 28.8 mph N/A   Overcast
1:35 PM 72.9 °F 61.0 °F 66% 29.82 in 10.0 mi SE 16.1 mph 20.7 mph N/A   Overcast
1:55 PM 72.9 °F 61.0 °F 66% 29.81 in 10.0 mi SSE 15.0 mph 21.9 mph N/A   Overcast
2:15 PM 73.0 °F 61.3 °F 67% 29.80 in 10.0 mi SSE 16.1 mph 23.0 mph N/A   Overcast
2:35 PM 73.6 °F 61.7 °F 66% 29.79 in 10.0 mi SE 12.7 mph 21.9 mph N/A   Overcast
2:55 PM 74.7 °F 61.2 °F 63% 29.78 in 10.0 mi SSE 20.7 mph 28.8 mph N/A   Overcast
3:15 PM 74.3 °F 61.0 °F 63% 29.78 in 10.0 mi SSE 17.3 mph 23.0 mph N/A   Overcast
3:35 PM 74.8 °F 61.2 °F 62% 29.77 in 10.0 mi SSE 16.1 mph 21.9 mph N/A   Overcast
3:55 PM 75.4 °F 61.0 °F 61% 29.76 in 10.0 mi SE 18.4 mph 23.0 mph N/A   Overcast
4:15 PM 75.4 °F 60.8 °F 60% 29.74 in 10.0 mi SE 18.4 mph 27.6 mph N/A   Overcast
4:35 PM 75.2 °F 61.0 °F 61% 29.74 in 10.0 mi SSE 18.4 mph 29.9 mph N/A   Overcast
4:55 PM 74.8 °F 60.8 °F 62% 29.74 in 10.0 mi SSE 18.4 mph 27.6 mph N/A   Overcast
5:15 PM 74.3 °F 60.4 °F 62% 29.75 in 10.0 mi SSE 19.6 mph 25.3 mph N/A   Overcast
5:35 PM 73.4 °F 60.8 °F 65% 29.75 in 10.0 mi SE 15.0 mph 23.0 mph N/A   Overcast
5:55 PM 72.7 °F 60.8 °F 66% 29.76 in 10.0 mi SSE 17.3 mph 21.9 mph N/A   Overcast
6:15 PM 71.8 °F 60.8 °F 68% 29.75 in 10.0 mi SSE 16.1 mph 24.2 mph N/A   Overcast
6:35 PM 71.2 °F 61.0 °F 70% 29.74 in 10.0 mi SE 19.6 mph 28.8 mph N/A   Overcast
6:55 PM 70.0 °F 61.7 °F 75% 29.75 in 10.0 mi SSE 17.3 mph 24.2 mph N/A   Overcast
7:15 PM 68.9 °F 61.7 °F 78% 29.75 in 10.0 mi SSE 16.1 mph 25.3 mph N/A   Overcast
7:35 PM 68.4 °F 61.9 °F 80% 29.75 in 10.0 mi SE 13.8 mph - N/A   Overcast
7:55 PM 68.5 °F 61.3 °F 78% 29.76 in 10.0 mi SE 13.8 mph 18.4 mph N/A   Overcast
8:15 PM 69.1 °F 61.0 °F 75% 29.75 in 10.0 mi SE 15.0 mph 23.0 mph N/A   Overcast
8:35 PM 68.9 °F 60.8 °F 75% 29.75 in 10.0 mi SE 16.1 mph 24.2 mph N/A   Overcast
8:55 PM 68.0 °F 60.8 °F 78% 29.75 in 10.0 mi SE 12.7 mph 25.3 mph N/A   Overcast
9:15 PM 68.4 °F 60.3 °F 75% 29.73 in 10.0 mi ESE 16.1 mph 27.6 mph N/A   Overcast
9:35 PM 68.4 °F 60.4 °F 76% 29.75 in 10.0 mi SE 13.8 mph 23.0 mph N/A   Overcast
9:55 PM 68.2 °F 60.3 °F 76% 29.74 in 10.0 mi ESE 12.7 mph 20.7 mph N/A   Overcast
10:15 PM 68.2 °F 60.3 °F 76% 29.75 in 10.0 mi ESE 11.5 mph 19.6 mph N/A   Overcast
10:35 PM 68.2 °F 60.3 °F 76% 29.75 in 10.0 mi SE 17.3 mph 24.2 mph N/A   Overcast
10:55 PM 68.2 °F 60.8 °F 77% 29.75 in 10.0 mi SE 17.3 mph 27.6 mph N/A   Overcast
11:15 PM 68.4 °F 60.3 °F 75% 29.78 in 10.0 mi SE 11.5 mph 16.1 mph N/A   Overcast
11:35 PM 67.5 °F 61.0 °F 80% 29.78 in 10.0 mi SE 11.5 mph 20.7 mph N/A   Overcast
11:55 PM 65.3 °F 62.1 °F 89% 29.79 in 5.0 mi SE 11.5 mph - N/A Rain Light Rain